Location: Bothell
(47.7630°N, 122.2040°W)
Time: 02:28:09
(UTC-07:00)

Amateur Radio Satellites - All Passes

Search period start: 29 April 2017 01:58
Search period end: 30 April 2017 01:58
Location: Bothell, 47.7630°N, 122.2040°W

Satellite Date Start Highest point End Downlink Frequencies (MHz)
Time Altitude Azimuth
PCSat 29 Apr 02:08:11 02:13:17 43° 115° (ESE) 02:18:25 145.827
POLYITAN 1 29 Apr 02:19:19 02:22:26 21° 297° (WNW) 02:25:33 437.675
MOZHAYETS 4 29 Apr 02:21:02 02:23:58 17° 60° (ENE) 02:26:53
QB50P2 29 Apr 02:26:24 02:29:08 17° 299° (WNW) 02:31:50 145.880/145.840
BUGSAT 1 29 Apr 02:28:34 02:32:28 49° 289° (WNW) 02:36:19 437.445
UKube-1 29 Apr 02:33:29 02:36:42 20° 267° (W) 02:39:56 .
NANOSAT C BR1 29 Apr 02:46:13 02:48:12 13° 301° (WNW) 02:50:11 145.865
BEESAT 29 Apr 02:49:08 02:53:47 59° 71° (ENE) 02:58:29 436.000
AO-7 29 Apr 02:52:54 02:55:51 12° 83° (E) 02:58:47 .
ITAMSAT 1 29 Apr 03:05:55 03:07:23 11° 86° (E) 03:08:51 435.822/435.867
Oscar 19 29 Apr 03:10:49 03:16:02 71° 288° (WNW) 03:21:11 437.125/150
CUBESAT XI-V 29 Apr 03:19:59 03:22:13 13° 57° (ENE) 03:24:29 437.345
YUBILEINY 29 Apr 03:26:30 03:33:23 28° 80° (E) 03:40:18 435.215
ITUPSAT 1 29 Apr 03:31:38 03:36:19 58° 259° (WSW) 03:41:02 437.325
Gurwin Techsat 1B 29 Apr 03:33:53 03:39:12 74° 288° (WNW) 03:44:30 435.225
KKS-1 29 Apr 03:49:30 03:53:06 24° 63° (ENE) 03:56:42 437.445
PCSat 29 Apr 03:51:44 03:56:46 38° 315° (NW) 04:01:51 145.827
MOZHAYETS 4 29 Apr 03:56:06 04:00:37 67° 258° (WSW) 04:05:11
STARS 29 Apr 04:13:58 04:17:09 20° 62° (ENE) 04:20:22 437.465
BEESAT 29 Apr 04:28:41 04:31:57 18° 269° (W) 04:35:15 436.000
AO-7 29 Apr 04:42:10 04:50:24 60° 104° (ESE) 04:58:36 .
ITAMSAT 1 29 Apr 04:42:30 04:47:42 78° 104° (ESE) 04:52:53 435.822/435.867
Oscar 19 29 Apr 04:52:14 04:54:25 13° 307° (NW) 04:56:37 437.125/150
CUBESAT XI-V 29 Apr 04:54:13 04:58:53 89° 73° (ENE) 05:03:37 437.345
Gurwin Techsat 1B 29 Apr 05:15:44 05:18:16 14° 307° (NW) 05:20:47 435.225
YUBILEINY 29 Apr 05:20:40 05:29:21 74° 282° (WNW) 05:38:07 435.215
KKS-1 29 Apr 05:25:12 05:29:27 42° 261° (W) 05:33:43 437.445
PCSat 29 Apr 05:39:12 05:41:47 13° 339° (NNW) 05:44:21 145.827
STARS 29 Apr 05:48:52 05:53:10 52° 259° (W) 05:57:29 437.465
M-CUBED/EXP-1 PRIME 29 Apr 05:56:41 05:59:32 16° 53° (NE) 06:02:22 437.505
SO-50 29 Apr 06:02:11 06:06:18 32° 117° (ESE) 06:10:22 436.795
CUTE-I 29 Apr 06:11:56 06:14:44 14° 87° (E) 06:17:30 437.470
XW-2D 29 Apr 06:20:42 06:22:58 15° 90° (E) 06:25:14 145.860 - 145.880
ITAMSAT 1 29 Apr 06:23:09 06:26:35 18° 303° (WNW) 06:29:59 435.822/435.867
XW-2B 29 Apr 06:27:28 06:30:03 17° 92° (E) 06:32:38 145.730 - 145.750
KAITUO 1B 29 Apr 06:30:26 06:32:40 15° 91° (E) 06:34:54 145.475/437.950
DOVE 4 29 Apr 06:34:31 06:38:45 35° 95° (E) 06:42:44 437.250
CUBESAT XI-V 29 Apr 06:35:19 06:36:57 12° 274° (W) 06:38:36 437.345
AO-7 29 Apr 06:35:23 06:42:53 39° 305° (NW) 06:50:23 .
STRAND 1 29 Apr 06:38:03 06:42:26 30° 63° (ENE) 06:46:50 437.568
XW-2C 29 Apr 06:39:08 06:42:13 23° 94° (E) 06:45:19 145.795 - 145.815
LilacSat-2 29 Apr 06:41:18 06:44:34 25° 95° (E) 06:47:48 437.200
RS-15 29 Apr 06:48:40 06:59:41 44° 109° (ESE) 07:10:55 29.354- 29.394
XW-2F 29 Apr 07:02:05 07:05:42 39° 98° (E) 07:09:17 145.980 - 146.000
NUDT-PHONESAT 29 Apr 07:04:51 07:08:18 34° 97° (E) 07:11:43 437.300
Tancredo 1 29 Apr 07:10:43 07:12:01 12° 135° (SE) 07:13:20 437.200
YUBILEINY 29 Apr 07:22:07 07:27:56 19° 306° (NW) 07:33:48 435.215
M-CUBED/EXP-1 PRIME 29 Apr 07:28:41 07:33:21 86° 249° (WSW) 07:38:02 437.505
SO-50 29 Apr 07:42:19 07:46:41 41° 317° (NW) 07:51:01 436.795
CUTE-I 29 Apr 07:50:09 07:55:30 87° 288° (WNW) 08:00:49 437.470
ISS 29 Apr 07:52:54 07:55:32 23° 141° (SE) 07:58:10 437.550
XW-2D 29 Apr 07:53:45 07:57:26 48° 288° (WNW) 08:01:08 145.860 - 145.880
XW-2B 29 Apr 08:00:49 08:04:27 42° 289° (WNW) 08:08:04 145.730 - 145.750
XW-2A 29 Apr 08:02:33 08:05:22 24° 96° (E) 08:08:10 145.665 - 145.685
KAITUO 1B 29 Apr 08:03:18 08:06:57 48° 288° (WNW) 08:10:36 145.475/437.950
DOVE 4 29 Apr 08:12:23 08:16:20 28° 295° (WNW) 08:20:04 437.250
XW-2C 29 Apr 08:13:04 08:16:28 31° 291° (WNW) 08:19:51 145.795 - 145.815
LilacSat-2 29 Apr 08:15:29 08:18:49 29° 292° (WNW) 08:22:10 437.200
STRAND 1 29 Apr 08:16:39 08:21:28 42° 262° (W) 08:26:19 437.568
CUTE 1.7 + AOD 2 29 Apr 08:24:02 08:28:12 47° 98° (E) 08:32:21 437.475
CUBEBUG 2 29 Apr 08:24:30 08:27:50 23° 93° (E) 08:31:13 437.445
HO-68 29 Apr 08:27:10 08:34:13 52° 101° (E) 08:41:12 435.675
AO-7 29 Apr 08:30:20 08:33:23 13° 329° (NNW) 08:36:26 .
XW-2F 29 Apr 08:36:51 08:39:35 19° 295° (WNW) 08:42:20 145.980 - 146.000
SEEDS 29 Apr 08:38:24 08:42:30 44° 98° (E) 08:46:34 437.485
NUDT-PHONESAT 29 Apr 08:39:12 08:42:01 21° 295° (WNW) 08:44:50 437.300
Tancredo 1 29 Apr 08:44:21 08:47:25 69° 153° (SSE) 08:50:31 437.200
UNISAT 6 29 Apr 08:53:04 08:55:22 14° 59° (ENE) 08:57:39 437.425
ZACube-1 29 Apr 08:54:08 08:57:02 18° 91° (E) 08:59:58 437.345
FO-29 29 Apr 08:57:54 09:01:52 19° 58° (ENE) 09:05:38 435.910
AO-73 29 Apr 08:59:10 09:02:07 18° 91° (E) 09:05:07 145.935
RS-15 29 Apr 08:59:25 09:11:36 71° 314° (NW) 09:24:03 29.354- 29.394
PRISM 29 Apr 09:00:07 09:03:29 24° 64° (ENE) 09:06:52 437.425
M-CUBED/EXP-1 PRIME 29 Apr 09:06:41 09:08:23 12° 268° (W) 09:10:06 437.505
PCSat 29 Apr 09:09:34 09:13:31 20° 32° (NNE) 09:17:26 145.827
Oscar 11 29 Apr 09:10:57 09:14:14 20° 92° (E) 09:17:29 .
SO-50 29 Apr 09:26:07 09:28:20 13° 339° (NNW) 09:30:33 436.795
ISS 29 Apr 09:28:30 09:31:46 76° 339° (NNW) 09:35:03 437.550
CUTE-I 29 Apr 09:31:42 09:34:48 16° 305° (NW) 09:37:54 437.470
XW-2A 29 Apr 09:35:22 09:38:03 22° 293° (WNW) 09:40:44 145.665 - 145.685
AAUSAT CUBESAT 2 29 Apr 09:37:16 09:41:30 89° 268° (W) 09:45:40 437.432
UWE-3 29 Apr 09:40:49 09:45:02 87° 108° (ESE) 09:49:19 435.000/436.395/437.385
OBJECT BX 29 Apr 09:52:57 09:53:52 11° 88° (E) 09:54:48 145.990 - 145.960
DELFI C3 29 Apr 09:55:07 09:57:48 17° 91° (E) 10:00:26 145.870
CUTE 1.7 + AOD 2 29 Apr 10:00:33 10:03:43 20° 297° (WNW) 10:06:54 437.475
CUBEBUG 2 29 Apr 10:00:44 10:04:35 37° 291° (WNW) 10:08:28 437.445
TIGRISAT 29 Apr 10:05:05 10:09:22 62° 73° (ENE) 10:13:36 435.000
SEEDS 29 Apr 10:14:41 10:17:55 21° 296° (WNW) 10:21:08 437.485
HO-68 29 Apr 10:15:15 10:21:45 38° 301° (WNW) 10:28:15 435.675
Tancredo 1 29 Apr 10:20:29 10:23:27 41° 352° (N) 10:26:26 437.200
O/OREOS (USA 219) 29 Apr 10:22:52 10:27:23 61° 111° (ESE) 10:31:57 437.305
UNISAT 6 29 Apr 10:27:13 10:31:34 73° 258° (WSW) 10:35:51 437.425
ZACube-1 29 Apr 10:29:30 10:33:36 50° 288° (WNW) 10:37:46 437.345
NANOSAT C BR1 29 Apr 10:31:37 10:32:55 11° 57° (ENE) 10:34:12 145.865
AO-73 29 Apr 10:34:32 10:38:36 49° 289° (WNW) 10:42:46 145.935
PRISM 29 Apr 10:34:44 10:38:36 37° 262° (W) 10:42:30 437.425
FO-29 29 Apr 10:40:25 10:46:31 78° 256° (WSW) 10:52:00 435.910
Oscar 11 29 Apr 10:46:25 10:50:35 45° 290° (WNW) 10:54:43 .
PCSat 29 Apr 10:52:24 10:57:52 74° 55° (NE) 11:03:17 145.827
DUCHIFAT 1 29 Apr 10:57:54 11:00:45 18° 62° (ENE) 11:03:37 145.980
EO-79 29 Apr 10:59:09 11:02:23 22° 64° (ENE) 11:05:38 145.935-145.965
ISS 29 Apr 11:05:26 11:08:33 39° 359° (N) 11:11:39 437.550
AAUSAT CUBESAT 2 29 Apr 11:14:54 11:16:16 11° 302° (WNW) 11:17:38 437.432
RS-15 29 Apr 11:15:27 11:26:42 38° 345° (NNW) 11:37:57 29.354- 29.394
UWE-3 29 Apr 11:19:21 11:20:53 12° 302° (WNW) 11:22:25 435.000/436.395/437.385
OBJECT BX 29 Apr 11:24:20 11:27:59 64° 285° (WNW) 11:31:36 145.990 - 145.960
DELFI C3 29 Apr 11:28:58 11:32:50 47° 289° (WNW) 11:36:39 145.870
AIST 2D 29 Apr 11:32:02 11:35:29 78° 76° (ENE) 11:38:59 435.315
POLYITAN 1 29 Apr 11:38:20 11:42:24 52° 71° (ENE) 11:46:30 437.675
AO-85 29 Apr 11:43:08 11:46:02 18° 114° (ESE) 11:48:50 145.980
TIGRISAT 29 Apr 11:44:01 11:46:28 15° 270° (W) 11:48:54 435.000
QB50P2 29 Apr 11:45:01 11:49:11 66° 73° (ENE) 11:53:23 145.880/145.840
BUGSAT 1 29 Apr 11:47:02 11:50:00 19° 63° (ENE) 11:52:56 437.445
Tancredo 1 29 Apr 11:56:42 11:59:43 46° 12° (NNE) 12:02:43 437.200
O/OREOS (USA 219) 29 Apr 12:03:42 12:07:12 21° 311° (NW) 12:10:44 437.305
NANOSAT C BR1 29 Apr 12:03:44 12:07:56 87° 76° (ENE) 12:12:10 145.865
HO-68 29 Apr 12:07:17 12:07:31 10° 323° (NW) 12:07:45 435.675
LO-87 29 Apr 12:17:48 12:21:23 76° 102° (ESE) 12:24:56 145.935 - 145.965
FO-29 29 Apr 12:30:18 12:32:23 12° 273° (W) 12:34:24 435.910
DUCHIFAT 1 29 Apr 12:31:59 12:36:04 52° 260° (W) 12:40:10 145.980
EO-79 29 Apr 12:33:55 12:37:55 42° 262° (W) 12:41:56 145.935-145.965
PCSat 29 Apr 12:36:51 12:40:40 20° 253° (WSW) 12:44:29 145.827
ESTCUBE 1 29 Apr 12:38:07 12:42:39 64° 101° (E) 12:47:10 437.505/2401.250
VELOX 1 29 Apr 12:38:21 12:41:36 20° 92° (E) 12:44:49 145.980
ISS 29 Apr 12:42:07 12:45:22 64° 18° (NNE) 12:48:36 437.550
SO-50 29 Apr 12:49:58 12:53:09 18° 29° (NNE) 12:56:19 436.795
Oscar 19 29 Apr 12:52:22 12:57:03 36° 65° (ENE) 13:01:47 437.125/150
POLYITAN 1 29 Apr 13:15:45 13:18:30 17° 269° (W) 13:21:16 437.675
SPROUT 29 Apr 13:16:20 13:20:25 44° 99° (E) 13:24:28 437.525
Gurwin Techsat 1B 29 Apr 13:19:06 13:23:58 38° 66° (ENE) 13:28:53 435.225
DX 1 29 Apr 13:19:48 13:23:03 20° 92° (E) 13:26:17 434.975-435.025
BUGSAT 1 29 Apr 13:21:06 13:25:04 45° 261° (W) 13:29:01 437.445
AO-85 29 Apr 13:21:57 13:26:05 57° 311° (NW) 13:30:02 145.980
QB50P2 29 Apr 13:23:19 13:25:26 13° 271° (W) 13:27:33 145.880/145.840
YUBILEINY 29 Apr 13:31:00 13:36:29 18° 52° (NE) 13:41:57 435.215
RS-15 29 Apr 13:31:53 13:43:19 40° 19° (NNE) 13:54:27 29.354- 29.394
Tancredo 1 29 Apr 13:32:38 13:35:39 50° 211° (SSW) 13:38:40 437.200
BEESAT 3 29 Apr 13:36:26 13:40:13 46° 121° (ESE) 13:44:05 437.485
BEESAT 2 29 Apr 13:43:23 13:46:32 23° 115° (ESE) 13:49:44 435.950
LO-87 29 Apr 13:54:00 13:54:16 10° 300° (WNW) 13:54:31 145.935 - 145.965
AO-7 29 Apr 13:54:12 14:01:01 30° 50° (NE) 14:07:50 .
50 SAT 29 Apr 14:04:01 14:07:32 84° 287° (WNW) 14:11:00 437.505
VELOX 1 29 Apr 14:14:02 14:18:19 48° 290° (WNW) 14:22:33 145.980
UKube-1 29 Apr 14:15:34 14:19:48 51° 101° (E) 14:23:59 .
ESTCUBE 1 29 Apr 14:15:59 14:19:00 18° 300° (WNW) 14:22:00 437.505/2401.250
ISS 29 Apr 14:18:49 14:21:42 29° 217° (SW) 14:24:35 437.550
ITAMSAT 1 29 Apr 14:25:42 14:29:59 27° 61° (ENE) 14:34:15 435.822/435.867
SO-50 29 Apr 14:29:49 14:34:21 77° 52° (NE) 14:38:51 436.795
Oscar 19 29 Apr 14:31:41 14:36:23 35° 264° (W) 14:41:07 437.125/150
BEESAT 29 Apr 14:47:59 14:49:30 11° 87° (E) 14:51:02 436.000
SPROUT 29 Apr 14:52:51 14:56:04 21° 297° (WNW) 14:59:16 437.525
DX 1 29 Apr 14:55:17 14:59:29 46° 291° (WNW) 15:03:38 434.975-435.025
Gurwin Techsat 1B 29 Apr 14:59:10 15:03:57 34° 264° (W) 15:08:48 435.225
AO-85 29 Apr 15:05:18 15:07:17 13° 333° (NNW) 15:09:14 145.980
BEESAT 3 29 Apr 15:14:38 15:18:00 26° 321° (NW) 15:21:26 437.485
BEESAT 2 29 Apr 15:20:13 15:24:03 45° 314° (NW) 15:27:58 435.950
YUBILEINY 29 Apr 15:26:29 15:35:16 68° 77° (ENE) 15:44:00 435.215
ITUPSAT 1 29 Apr 15:28:49 15:32:55 27° 95° (E) 15:36:59 437.325
AO-7 29 Apr 15:44:43 15:53:01 81° 251° (WSW) 16:01:23 .
RS-15 29 Apr 15:45:38 15:58:03 78° 49° (NE) 16:09:54 29.354- 29.394
MOZHAYETS 4 29 Apr 15:48:02 15:51:42 23° 92° (E) 15:55:20
UKube-1 29 Apr 15:52:22 15:55:29 20° 299° (WNW) 15:58:35 .
ITAMSAT 1 29 Apr 16:04:10 16:09:11 49° 260° (W) 16:14:14 435.822/435.867
SO-50 29 Apr 16:11:35 16:14:14 16° 249° (WSW) 16:16:53 436.795
BEESAT 29 Apr 16:23:12 16:28:00 87° 104° (ESE) 16:32:47 436.000
CUBESAT XI-V 29 Apr 16:48:12 16:51:26 18° 90° (E) 16:54:38 437.345
BEESAT 2 29 Apr 17:01:14 17:02:50 12° 336° (NNW) 17:04:26 435.950
XW-2D 29 Apr 17:06:03 17:07:47 13° 61° (ENE) 17:09:32 145.860 - 145.880
ITUPSAT 1 29 Apr 17:06:23 17:10:51 40° 293° (WNW) 17:15:18 437.325
XW-2B 29 Apr 17:12:40 17:14:46 15° 62° (ENE) 17:16:53 145.730 - 145.750
KKS-1 29 Apr 17:12:40 17:16:30 28° 95° (E) 17:20:18 437.445
KAITUO 1B 29 Apr 17:14:40 17:16:15 12° 61° (ENE) 17:17:51 145.475/437.950
HO-68 29 Apr 17:16:17 17:19:45 14° 43° (NE) 17:23:15 435.675
XW-2C 29 Apr 17:24:03 17:26:45 19° 64° (ENE) 17:29:27 145.795 - 145.815
YUBILEINY 29 Apr 17:24:06 17:31:24 31° 279° (W) 17:38:43 435.215
MOZHAYETS 4 29 Apr 17:24:39 17:29:03 45° 291° (WNW) 17:33:28
LilacSat-2 29 Apr 17:26:43 17:29:36 21° 65° (ENE) 17:32:30 437.200
STARS 29 Apr 17:35:11 17:38:33 21° 93° (E) 17:41:54 437.465
CUTE-I 29 Apr 17:36:16 17:41:00 34° 64° (ENE) 17:45:45 437.470
AO-7 29 Apr 17:41:37 17:47:04 19° 272° (W) 17:52:33 .
DOVE 4 29 Apr 17:41:56 17:47:05 55° 71° (ENE) 17:52:05 437.250
XW-2F 29 Apr 17:46:14 17:49:32 30° 69° (ENE) 17:52:51 145.980 - 146.000
NUDT-PHONESAT 29 Apr 17:47:32 17:50:38 26° 67° (ENE) 17:53:44 437.300
RS-15 29 Apr 17:58:56 18:09:30 37° 254° (WSW) 18:19:42 29.354- 29.394
BEESAT 29 Apr 18:02:32 18:05:07 15° 304° (WNW) 18:07:42 436.000
CUBESAT XI-V 29 Apr 18:24:32 18:29:12 60° 288° (WNW) 18:33:50 437.345
AO-85 29 Apr 18:30:41 18:31:55 11° 24° (NNE) 18:33:09 145.980
XW-2D 29 Apr 18:37:47 18:41:30 63° 259° (WSW) 18:45:15 145.860 - 145.880
XW-2A 29 Apr 18:37:51 18:39:54 16° 64° (ENE) 18:41:58 145.665 - 145.685
NO-84 29 Apr 18:40:39 18:43:36 22° 134° (SE) 18:46:23 435.350 FM
XW-2B 29 Apr 18:44:53 18:48:33 53° 260° (W) 18:52:16 145.730 - 145.750
KAITUO 1B 29 Apr 18:46:07 18:49:46 64° 258° (WSW) 18:53:29 145.475/437.950
KKS-1 29 Apr 18:49:04 18:53:06 34° 293° (WNW) 18:57:06 437.445
O/OREOS (USA 219) 29 Apr 18:50:34 18:54:35 29° 53° (NE) 18:58:34 437.305
XW-2C 29 Apr 18:57:12 19:00:42 38° 262° (W) 19:04:15 145.795 - 145.815
AAUSAT CUBESAT 2 29 Apr 18:58:04 18:59:29 12° 58° (ENE) 19:00:54 437.432
HO-68 29 Apr 18:59:04 19:05:59 55° 65° (ENE) 19:12:56 435.675
LilacSat-2 29 Apr 19:00:15 19:03:42 34° 263° (W) 19:07:11 437.200
UWE-3 29 Apr 19:07:17 19:09:09 13° 59° (ENE) 19:11:02 435.000/436.395/437.385
STARS 29 Apr 19:10:56 19:15:05 43° 291° (WNW) 19:19:13 437.465
CUTE-I 29 Apr 19:15:58 19:20:58 40° 262° (W) 19:25:59 437.470
CUTE 1.7 + AOD 2 29 Apr 19:19:35 19:23:40 50° 71° (ENE) 19:27:49 437.475
XW-2F 29 Apr 19:20:45 19:23:43 22° 266° (W) 19:26:43 145.980 - 146.000
DOVE 4 29 Apr 19:20:54 19:25:01 23° 268° (W) 19:29:06 437.250
NUDT-PHONESAT 29 Apr 19:21:25 19:24:30 25° 265° (W) 19:27:37 437.300
CUBEBUG 2 29 Apr 19:25:43 19:29:25 29° 67° (ENE) 19:33:03 437.445
SEEDS 29 Apr 19:32:58 19:36:58 46° 71° (ENE) 19:41:02 437.485
ZACube-1 29 Apr 19:53:17 19:56:25 21° 64° (ENE) 19:59:33 437.345
AO-73 29 Apr 19:58:01 20:01:10 21° 64° (ENE) 20:04:18 145.935
Oscar 11 29 Apr 20:08:53 20:12:21 24° 65° (ENE) 20:15:51 .
XW-2A 29 Apr 20:09:15 20:12:24 37° 262° (W) 20:15:33 145.665 - 145.685
AO-85 29 Apr 20:09:31 20:13:18 43° 46° (NE) 20:17:12 145.980
BEESAT 3 29 Apr 20:13:09 20:15:51 17° 32° (NNE) 20:18:32 437.485
NO-84 29 Apr 20:17:19 20:20:56 66° 330° (NNW) 20:24:14 435.350 FM
BEESAT 2 29 Apr 20:20:34 20:22:11 12° 24° (NNE) 20:23:48 435.950
STRAND 1 29 Apr 20:23:12 20:28:11 51° 100° (E) 20:33:09 437.568
O/OREOS (USA 219) 29 Apr 20:29:51 20:34:06 39° 253° (WSW) 20:38:19 437.305
AAUSAT CUBESAT 2 29 Apr 20:30:07 20:34:16 89° 272° (W) 20:38:29 437.432
M-CUBED/EXP-1 PRIME 29 Apr 20:39:12 20:43:06 39° 103° (ESE) 20:46:42 437.505
UWE-3 29 Apr 20:40:50 20:45:04 78° 258° (WSW) 20:49:15 435.000/436.395/437.385
DELFI C3 29 Apr 20:44:02 20:46:37 17° 62° (ENE) 20:49:12 145.870
HO-68 29 Apr 20:47:34 20:53:59 35° 265° (W) 21:00:28 435.675
CUTE 1.7 + AOD 2 29 Apr 20:56:56 20:59:49 18° 270° (W) 21:02:42 437.475
CUBEBUG 2 29 Apr 21:02:13 21:06:00 30° 264° (W) 21:09:44 437.445
SEEDS 29 Apr 21:09:54 21:12:55 19° 269° (W) 21:15:57 437.485
ZACube-1 29 Apr 21:28:31 21:32:28 41° 262° (W) 21:36:25 437.345
AO-73 29 Apr 21:33:15 21:37:11 40° 262° (W) 21:41:06 145.935
Oscar 11 29 Apr 21:44:17 21:48:18 38° 263° (W) 21:52:22 .
BEESAT 3 29 Apr 21:50:00 21:54:03 85° 51° (NE) 21:58:04 437.485
AO-85 29 Apr 21:50:17 21:53:29 23° 244° (WSW) 21:56:45 145.980
NO-84 29 Apr 21:56:02 21:58:53 24° 350° (N) 22:01:33 435.350 FM
BEESAT 2 29 Apr 21:57:02 22:00:57 44° 46° (NE) 22:04:51 435.950
STRAND 1 29 Apr 22:02:57 22:07:05 25° 298° (WNW) 22:11:12 437.568
OBJECT BX 29 Apr 22:04:55 22:08:32 88° 90° (E) 22:12:12 145.990 - 145.960
ESTCUBE 1 29 Apr 22:07:05 22:08:59 13° 56° (ENE) 22:10:54 437.505/2401.250
PRISM 29 Apr 22:12:46 22:16:06 23° 94° (E) 22:19:23 437.425
M-CUBED/EXP-1 PRIME 29 Apr 22:13:59 22:17:20 23° 303° (WNW) 22:20:28 437.505
UNISAT 6 29 Apr 22:16:04 22:18:59 18° 91° (E) 22:21:55 437.425
DELFI C3 29 Apr 22:17:06 22:21:00 52° 260° (W) 22:24:57 145.870
LO-87 29 Apr 22:56:45 23:00:17 49° 72° (ENE) 23:03:48 145.935 - 145.965
TIGRISAT 29 Apr 23:29:19 23:33:38 87° 104° (ESE) 23:38:00 435.000
BEESAT 3 29 Apr 23:29:34 23:31:01 12° 251° (WSW) 23:32:27 437.485
FO-29 29 Apr 23:30:03 23:35:16 66° 102° (ESE) 23:40:50 435.910
NO-84 29 Apr 23:34:24 23:37:08 25° 12° (NNE) 23:39:41 435.350 FM
BEESAT 2 29 Apr 23:35:13 23:38:30 24° 245° (WSW) 23:41:46 435.950
VELOX 1 29 Apr 23:38:29 23:42:15 27° 65° (ENE) 23:46:01 145.980
ESTCUBE 1 29 Apr 23:40:33 23:45:04 86° 74° (ENE) 23:49:38 437.505/2401.250
NANOSAT C BR1 29 Apr 23:46:58 23:48:02 11° 87° (E) 23:49:05 145.865
PRISM 29 Apr 23:47:38 23:51:30 37° 292° (WNW) 23:55:17 437.425
UNISAT 6 29 Apr 23:51:49 23:56:00 52° 289° (WNW) 00:00:14 437.425
SPROUT 30 Apr 00:12:34 00:16:41 51° 71° (ENE) 00:20:50 437.525
DUCHIFAT 1 30 Apr 00:13:06 00:16:05 19° 92° (E) 00:19:02 145.980
EO-79 30 Apr 00:15:15 00:18:39 23° 94° (E) 00:22:03 145.935-145.965
DX 1 30 Apr 00:18:13 00:21:57 28° 65° (ENE) 00:25:41 434.975-435.025
AIST 2D 30 Apr 00:26:47 00:30:18 59° 101° (E) 00:33:47 435.315
LO-87 30 Apr 00:32:10 00:34:01 13° 270° (W) 00:35:50 145.935 - 145.965
50 SAT 30 Apr 00:39:32 00:42:58 59° 73° (ENE) 00:46:26 437.505
POLYITAN 1 30 Apr 00:55:09 00:59:19 61° 101° (ESE) 01:03:28 437.675
BUGSAT 1 30 Apr 00:59:55 01:02:46 19° 92° (E) 01:05:37 437.445
QB50P2 30 Apr 01:01:58 01:06:11 78° 103° (ESE) 01:10:24 145.880/145.840
TIGRISAT 30 Apr 01:07:58 01:09:42 12° 302° (WNW) 01:11:27 435.000
NO-84 30 Apr 01:11:55 01:14:58 89° 19° (NNE) 01:17:51 435.350 FM
UKube-1 30 Apr 01:12:51 01:17:08 67° 73° (ENE) 01:21:28 .
VELOX 1 30 Apr 01:14:27 01:18:34 36° 263° (W) 01:22:43 145.980
FO-29 30 Apr 01:16:15 01:20:00 20° 301° (WNW) 01:23:51 435.910
NANOSAT C BR1 30 Apr 01:20:06 01:24:18 81° 285° (WNW) 01:28:29 145.865
ESTCUBE 1 30 Apr 01:21:00 01:22:31 11° 273° (W) 01:24:02 437.505/2401.250
Gurwin Techsat 1B 30 Apr 01:34:23 01:35:31 11° 85° (E) 01:36:40 435.225
PCSat 30 Apr 01:37:45 01:42:32 33° 112° (ESE) 01:47:20 145.827
DUCHIFAT 1 30 Apr 01:47:59 01:52:00 46° 289° (WNW) 01:55:59 145.980
SPROUT 30 Apr 01:50:02 01:52:54 17° 269° (W) 01:55:47 437.525
